Location: Buckeye Ditch
(40.9104°N, 122.9517°W)
Time: 13:52:08
(UTC+00:00)

Vanguard 2 - Visible Passes

Search period start: 18 May 2025 00:00
Search period end: 28 May 2025 00:00
Orbit: 553 x 2901 km, 32.9° (Epoch: 17 May)

Date Brightness Start Highest point End Pass type
(mag) Time Alt. Az. Time Alt. Az. Time Alt. Az.
18 May 9.7 04:00:52 10° S 04:06:23 22° SE 04:14:05 10° E visible
18 May 9.4 06:05:38 10° SW 06:14:06 51° SSE 06:27:41 10° E visible
18 May 9.7 08:12:55 10° W 08:23:59 61° S 08:40:21 10° ESE visible
18 May 10.2 10:21:44 10° W 10:34:51 47° SSW 10:51:06 10° SE visible
19 May 9.5 04:12:28 10° SSW 04:18:25 28° SE 04:27:08 10° E visible
19 May 9.3 06:17:57 10° WSW 06:26:28 55° SSE 06:40:16 10° E visible
19 May 9.7 08:25:25 10° W 08:36:28 58° S 08:52:42 10° ESE visible
19 May 10.3 10:34:29 10° W 10:47:12 41° SSW 11:02:50 10° SE visible
20 May 9.3 04:24:21 10° SSW 04:30:31 33° SSE 04:39:59 10° E visible
20 May 9.3 06:30:19 10° WSW 06:38:54 57° S 06:52:49 10° E visible
20 May 9.8 08:37:57 10° W 08:48:57 54° SSW 09:04:58 10° ESE visible
20 May 10.5 10:47:20 10° W 10:59:31 35° SSW 11:14:19 10° SSE visible
21 May 9.1 04:36:24 10° SW 04:42:43 38° SSE 04:52:42 10° E visible
21 May 9.3 06:42:44 10° WSW 06:51:20 57° S 07:05:20 10° ESE visible
21 May 9.8 08:50:31 10° W 09:01:24 50° SSW 09:17:04 10° SE visible
21 May 10.6 11:00:24 10° W 11:11:49 29° SSW 11:25:29 10° SSE visible
22 May 9.0 04:48:34 10° SW 04:54:59 43° SSE 05:05:21 10° E visible
22 May 9.3 06:55:11 10° WSW 07:03:49 56° S 07:17:46 10° ESE visible
22 May 9.9 09:03:09 10° W 09:13:51 44° SSW 09:29:00 10° SE visible
22 May 10.8 11:13:46 10° W 11:24:06 24° SW 11:36:12 10° S visible
23 May 8.9 05:00:50 10° WSW 05:07:19 47° SSE 05:17:56 10° E visible
23 May 9.3 07:07:40 10° W 07:16:16 54° S 07:30:07 10° ESE visible
23 May 10.0 09:15:52 10° W 09:26:15 38° SSW 09:40:43 10° SE visible
23 May 10.9 11:27:41 10° WSW 11:36:22 18° SW 11:46:15 10° S visible
24 May 8.9 05:13:10 10° WSW 05:19:42 50° S 05:30:28 10° E visible
24 May 9.4 07:20:11 10° W 07:28:45 50° S 07:42:22 10° ESE visible
24 May 10.5 09:28:42 10° W 09:43:24 28° S 09:52:10 10° SSE visible
24 May 11.0 11:44:45 12° SW 11:48:39 13° SW 11:54:56 10° SSW visible
25 May 8.9 05:25:33 10° WSW 05:32:07 51° S 05:40:55 16° ESE visible
25 May 9.5 07:32:44 10° W 07:41:12 45° SSW 07:41:45 45° S visible
25 May 10.8 09:41:45 10° W 09:58:50 18° S 10:03:16 10° SSE visible
26 May 8.9 05:37:59 10° WSW 05:44:33 50° S 05:51:17 22° ESE visible
26 May 9.7 07:45:20 10° W 07:52:10 38° SSW 07:52:10 38° SSW visible
26 May 11.2 10:13:21 11° S 10:13:21 11° S 10:13:54 10° S visible
27 May 9.0 05:50:26 10° WSW 05:57:00 47° S 06:01:58 28° SE visible
27 May 10.0 07:58:03 10° W 08:02:52 29° SW 08:02:52 29° SW visible
